Location: ?????
(42.2640°N, 43.4211°E)
Time: 14:09:32
(UTC+00:00)

Cosmos 2263 Rocket - Pass Details

Date: 07 August 2020
Orbit: 824 x 848 km, 71.0° (Epoch: 19 September)

Event Time Altitude Azimuth Distance (km) Brightness Sun altitude
Exits shadow 00:42:18 16° 204° (SSW) 2,012 3.6 -14.0°
Maximum altitude 00:46:46 88° 291° (WNW) 831 2.1 -13.4°
Drops below altitude 10° 00:52:21 10° 24° (NNE) 2,431 5.6 -12.6°
Sets 00:54:47 0° 25° (NNE) 3,368 6.5 -12.2°
